[Iaude] MPEC B133: 2024 AB5 [a=2.30,e=0.65,i=9.5,H=19.12]

mpec at marsden.cfa.harvard.edu mpec at marsden.cfa.harvard.edu
Thu Jan 25 09:11:14 EST 2024


M.P.E.C. 2024-B133                             Issued 2024 January 25, 14:09 UT

     The Minor Planet Electronic Circulars contain information on unusual
         minor planets, routine data on comets and natural satellites,
         and occasional editorial announcements.  They are published
    on behalf of Division F of the International Astronomical Union by the
          Minor Planet Center, Smithsonian Astrophysical Observatory,
                          Cambridge, MA 02138, U.S.A.
			  
             Prepared using the Tamkin Foundation Computer Network

                              MPC at CFA.HARVARD.EDU
            URL https://www.minorplanetcenter.net/    ISSN 1523-6714

                                    2024 AB5                                    


Additional Observations:
     K24A05B  C2013 12 11.55960307 10 30.534+17 37 30.34         23.20GVEB133F51
     K24A05B  C2013 12 11.57473907 10 29.327+17 37 32.89         23.25GVEB133F51
     K24A05B  C2013 12 11.58987307 10 28.098+17 37 36.60         22.99GVEB133F51
     K24A05B  C2016 02 09.49967712 51 34.003+06 23 46.74         23.61GVEB133F51
     K24A05B  C2016 02 09.51180412 51 33.859+06 23 52.13         23.36GVEB133F51
     K24A05B  C2016 02 09.52398012 51 33.674+06 23 56.48         23.25GVEB133F51
     K24A05B KC2016 02 29.55833512 42 33.152+09 11 46.65         22.38GVEB133F51
     K24A05B  C2016 04 05.30550912 02 01.091+15 22 57.46         21.13GVEB133F51
     K24A05B  C2016 04 05.31778312 02 00.076+15 23 04.06         22.10GVEB133F51
     K24A05B  C2016 04 05.32891612 01 59.174+15 23 09.68         22.35GVEB133F51
     K24A05B  C2016 04 05.34013312 01 58.249+15 23 15.81         22.82GVEB133F51
     K24A05B  C2016 04 09.32462511 56 46.248+15 55 04.69         22.80GVEB133F51
     K24A05B  C2016 04 09.33701311 56 45.248+15 55 10.11         22.31GVEB133F51
     K24A05B  C2016 04 09.34952811 56 44.257+15 55 15.19         22.63GVEB133F51
     K24A05B  C2017 02 14.23296502 08 30.087+05 49 59.12         22.13GVEB133F51
     K24A05B  C2017 02 14.24072302 08 31.285+05 50 07.61         22.94GVEB133F51
     K24A05B  C2017 02 14.24457702 08 31.883+05 50 12.19         22.26GVEB133F51
     K24A05B  C2017 02 16.23841102 13 43.413+06 26 36.67         22.58GVEB133F51
     K24A05B  C2017 02 16.24334402 13 44.195+06 26 42.83         22.25GVEB133F51
     K24A05B KC2020 11 16.50298607 37 36.091+16 29 17.19         22.81GVEB133F51
     K24A05B  C2020 12 24.54240706 55 51.601+18 42 32.81         22.75GVEB133F51
     K24A05B  C2023 03 25.35329312 25 02.351+13 00 44.44         21.79GVEB133F52
     K24A05B  C2023 03 25.37732412 25 00.508+13 01 00.38         21.78GVEB133F52
     K24A05B  C2023 04 16.25414511 56 03.385+16 17 58.55         21.88GVEB133F52
     K24A05B  C2023 04 16.26635911 56 02.436+16 18 03.17         22.33GVEB133F52
     K24A05B  C2023 04 16.29073811 56 00.538+16 18 12.59         22.00GVEB133F52

Observer details:
F51 Pan-STARRS 1, Haleakala.  Observers J. Herman, T. Lowe, P. Minguez, A.
    Schultz, I. Smith.  Measurers K. Chambers, T. de Boer, J. Fairlamb, H.
    Gao, M. Huber, C.-C. Lin, E. Magnier, Y. Ramanjooloo, R. Wainscoat, R.
    Weryk.  1.8-m Ritchey-Chretien + CCD.
F52 Pan-STARRS 2, Haleakala.  Observers J. Herman, T. Lowe, P. Minguez, A.
    Schultz, I. Smith.  Measurers K. Chambers, T. de Boer, J. Fairlamb, H.
    Gao, M. Huber, C.-C. Lin, E. Magnier, Y. Ramanjooloo, R. Wainscoat, R.
    Weryk.  1.8-m Ritchey-Chretien + CCD.

Orbital elements:
2024 AB5                                                 Earth MOID = 0.1007 AU
Epoch 2023 Sept. 13.0 TT = JDT 2460200.5                Veres                   
M 348.28018              (2000.0)            P               Q                  
n   0.28230913     Peri.  203.05336     +0.74202763     +0.65366940             
a   2.3013682      Node   115.26468     -0.58659632     +0.74049723             
e   0.6531827      Incl.    9.46394     -0.32449925     +0.15614152             
P   3.49           H   19.12          G   0.15           U   1                  
Residuals in seconds of arc
131211 F51  0.1-  0.9+    170214 F51  0.0   0.1-    231212 F52  0.1+  0.0
131211 F51  0.0   0.1-    170216 F51  0.1-  0.3-    231212 F52  0.1+  0.0
131211 F51  0.2-  0.1+    170216 F51  0.3+  0.5+    240102 F52  0.2+  0.0
160209 F51  0.2+  0.3-    201116 F51  0.0   0.6-    240110 W84  0.1-  0.1+
160209 F51  0.1+  0.3+    201224 F51  0.2+  0.3-    240110 W84  0.0   0.2+
160209 F51  0.5-  0.1-    230325 F52  0.3-  0.2-    240110 W84  0.6-  0.2-
160229 F51  0.2-  0.4+    230325 F52  0.5+  0.1-    240113 W84  0.1-  0.1+
160405 F51  0.3+  0.2-    230416 F52  0.2+  0.1+    240113 W84  0.0   0.2+
160405 F51  0.1+  0.1+    230416 F52  0.1+  0.1-    240113 W84  0.1+  0.2+
160405 F51  0.1+  0.0     230416 F52  0.1-  0.0     240114 V06  0.1-  0.3+
160405 F51  0.1-  0.4+    230707 F51  0.3+  0.2-    240114 V06  0.2+  0.2+
160409 F51  0.1+  0.1+    230707 F51  0.5+  0.0     240114 V06  0.3+  0.4-
160409 F51  0.2-  0.1-    230707 F51  0.3-  0.2-    240115 V06  0.0   0.9+
160409 F51  0.1-  0.6-    230707 F51  0.2-  0.8+    240115 V06  0.0   0.1-
170214 F51  0.2+  0.2-    231212 F52  0.1+  0.0     240115 V06  0.3-  0.5-
170214 F51  0.0   0.3-    231212 F52  0.1-  0.1-    240115 V06  0.2+  0.2-

Ephemeris:
2024 AB5                 a,e,i = 2.30, 0.65, 9                   q = 0.7982
Date    TT    R. A. (2000) Decl.     Delta      r    Elong.  Phase     V
2023 12 26    23 32 44.0 -14 51 55   1.0110  1.2075    74.5    51.7    21.5
...
2024 01 10    00 34 58.6 -06 51 58   1.1857  1.3539    76.6    45.0    21.9
...
2024 01 18    01 02 33.1 -03 07 21   1.2986  1.4319    76.3    41.9    22.1
...
2024 01 24    01 21 20.9 -00 34 50   1.3901  1.4899    75.6    39.8    22.3
2024 01 25    01 24 20.9 -00 10 43   1.4058  1.4995    75.4    39.4    22.3
2024 01 26    01 27 18.8 +00 13 03   1.4216  1.5091    75.2    39.1    22.3
...
2024 02 01    01 44 25.9 +02 28 15   1.5193  1.5664    74.0    37.2    22.5
...
2024 02 09    02 05 44.6 +05 10 13   1.6549  1.6417    71.9    34.8    22.7
...
2024 02 24    02 42 17.2 +09 25 00   1.9206  1.7791    66.7    30.7    23.1

A. U. Tomatic                (C) Copyright 2024 MPC           M.P.E.C. 2024-B133





More information about the Iaude mailing list